Погода в Яйпане

Узбекистан     40°22′37″N   70°48′49″E
темп.,
°C
ветер,
м/с
пор.,
м/с
влажн.,
%
обл.,
%
осадки,
мм/ч
давл.,
гПа
погр.,
м
27 февраля, сб
сб2723:000всв232465 0.0 103169
02:00−1в2227100 0.0 102944
05:00−1св1129100 0.0 102932
08:00−1св1229100 0.0 1029107
11:00+3всв1121100 0.0 1029757
14:00+5в2117100 0.0 10291099
17:00+5в3318100 0.0 10311010
20:00+3всв472484 0.0 1034223
28 февраля, вс
вс2823:00+1всв373244 0.0 1034185
02:000в35440 0.0 103297
05:00−1вюв23510 0.0 103048
08:000в23460 0.0 1029147
11:00+6всв45280 0.0 1024764
14:00+9всв45230 0.0 10221043
17:00+10всв34220 0.0 10211113
20:00+6всв33300 0.0 102447
1 марта, пн
пн123:00+5всв33340 0.0 102439
02:00+3всв234098 0.0 102329
05:00+2св224597 0.0 102324
08:00+3всв3442100 0.0 1023140
11:00+9всв452591 0.0 1021580
14:00+13всв441823 0.0 1020882
17:00+13св341612 0.0 1020874
20:00+9всв22220 0.0 102422
2 марта, вт
вт223:00+7в22250 0.0 102522
02:00+6всв232767 0.0 102424
05:00+5св334183 0.0 102442
08:00+6всв2441100 0.0 1024160
11:00+11всв3426100 0.0 1022444
14:00+14всв3318100 0.0 1021743
17:00+14всв2219100 0.0 1020450
20:00+11св1222100 0.0 102222
3 марта, ср
ср323:00+10ююв1124100 0.0 102222
02:00+9зюз0026100 0.0 102122
05:00+8ююв1128100 0.0 102122
08:00+9с0027100 0.0 102122
11:00+13св0128100 0.0 1019825
14:00+15юз1223100 0.0 10181507
17:00+15зюз4437100 0.0 10181674
20:00+12зюз7105860 0.1 1020427